sat.trackr.live / text

‹ back to catalog

STARLINK-34188

NORAD 64183 · 2025-113P

PAYLOAD ACTIVE UNKNOWN

§ Identity

Operator
Country
US
Launch date
2025-05-28
Launch site
AFETR
Launch vehicle
Mass (kg)
RCS (m²)

Purposes: comms

External: N2YO · Heavens-Above · Gunter

§ Orbital elements

Epoch: 2026-05-25T03:32:26.310336Z

Period
94.01 min
Inclination
53.1577°
Eccentricity
0.0001230
Mean motion
15.31716085 rev/d
Perigee alt
469.8 km
Apogee alt
471.5 km
Semi-major
6,848.8 km
B*
3.7950e-4
RAAN
95.8169°
Arg perigee
93.4445°
Mean anomaly
266.6697°
Rev number
5,677

§ Raw data

STARLINK-341881 64183U 25113P   26145.14752674  .00011435  00000+0  37950-3 0  99982 64183  53.1577  95.8169 0001230  93.4445 266.6697 15.31716085 56779

JSON: /api/v1/satellites/64183 · /tle

For live sub-satellite position, see the globe view (requires WebGL).

§ Visibility from observer

Set your observer location to see the next 7 days of passes ≥ 10°. The values pass through the URL so the page stays shareable.

No JS? Fill the form by hand. The geolocation button needs JavaScript.